WORLDVIEW 2 DEB

Satellite information

Favourite Embed

Satellite Type and Status

DEBRISIN ORBIT

Key statistics

Satellite WORLDVIEW 2 DEB at a glance.

Uptime

5910

Days in orbit

Revolutions

≈ 14.6

Per day

Orbit

SSO

Sun Synchronous Orbit

Inclination

98.4

Latest

Satellite identification and parameters

Extended collection of information and parameters for WORLDVIEW 2 DEB.

Object identification

Identified? True

Debris? True

Object name: WORLDVIEW 2 DEB

International designator: 2009-055K

Object number (NORAD): 41742

Object ID (CCSDS): 41742

Country: UNITED STATES OF AMERICA (US)

Current information (Y/N): Y

RCS size: SMALL

Orbital parameters

Period: 98.842 minutes

Inclination: 98.357 deg

SMA: 7081.446 km

Apoapsis: 709.168 km

Periapsis: 697.454 km

RAAN: 74.7783 deg

Eccentricy: 0.00082708

Argument of periapsis: 72.318 deg

Mean anomaly: 287.892 deg

Mean motion: 14.56866695 rev/day

Mean motion (dot): 0.0000674 rev/day2

B* drag term: 0.0015120427 1/REarth

Two-line elements (TLE)

Creation date: Dec. 12, 2025, 10:14 a.m.

Reference frame: TEME

Reference center: EARTH

Epoch: Dec. 12, 2025, 5:35 a.m. UTC

TLE line 0: 0 WORLDVIEW 2 DEB

TLE line 1: 1 41742U 09055K 25346.23328337 .00006740 00000-0 15120-2 0 9996

TLE line 2: 2 41742 98.3570 74.7783 0008271 72.3180 287.8920 14.56866695494871

Live tracking on map

Real-time ground track for satellite WORLDVIEW 2 DEB.

In-orbit conjunctions

A list of the most updated potential collisions computed for object WORLDVIEW 2 DEB.

Target Orbit TCA Probability of collision Miss distance Type
FENGYUN 1C DEB SSO 2025-07-09 05:20:17 0.0006424563 85.0 (m) DEBRIS
CZ-6A DEB LEO 2025-03-23 15:11:46 0.0001118514 267.0 (m) DEBRIS
CZ-6A DEB LEO 2024-12-21 05:42:57 0.0001637769 980.0 (m) DEBRIS
IRIDIUM 33 DEB LEO 2024-08-27 09:47:12 0.000149509 101.0 (m) DEBRIS

Associated space launch

A commercial earth observation satellite owned by DigitalGlobe.

WORLDVIEW 2 DEB was lifted into orbit during the mission ‘Delta II 7920-10C | WorldView-2’, on board a Delta II space rocket.

The launch took place on Oct. 8, 2009, 6:51 p.m. from Space Launch Complex 2W.

For more information about the launch, click the button.

Launch to space Delta II 7920-10C | WorldView-2
Delta II 7920-10C | WorldView-2

Agency: N/A

Status: Launch Successful

Launch date: Oct. 8, 2009, 6:51 p.m. UTC

Rocket: Delta II

Launch pad: Space Launch Complex 2W

Location: Vandenberg SFB, CA, USA

...

Latest news about this satellite

There are no fresh news available about this satellite. Check back as we update our databases every day.


Newsletter sign-up

Weekly statistics, charts and insights to help you stay on top of the space industry.